Walterboro, SC

5:59 AM EDT on July 25, 2017 (GMT -0400)
Lowcountry Regional

Weather History for KRBW - November, 2013

Change the Weather History Date:

Saturday, November 16, 2013

  Actual Average Record
Temperature  
Mean Temperature 65 °F -  
Max Temperature 77 °F 68 °F 84 °F (2011)
Min Temperature 51 °F 41 °F 37 °F (2016)
Growing Degree Days 15 (Base 50)    
Moisture  
Dew Point 61 °F    
Average Humidity 73    
Maximum Humidity 100    
Minimum Humidity 54    
Precipitation  
Precipitation 0.00 in - - ()
Sea Level Pressure  
Sea Level Pressure 30.20 in    
Wind  
Wind Speed 2 mph (NE)    
Max Wind Speed 7 mph    
Max Gust Speed -    
Visibility 6 miles    
Events Fog    
Averages and records for this station are not official NWS values.
T = Trace of Precipitation, MM = Missing Value Source: NWS Daily Summary

Daily Weather History Graph

Daily Weather History Graph

Search for Another Location

Airport or City:

Trip Planner

Search our weather history database for the weather conditions in past years. The results will help you decide how hot, cold, wet, or windy it might be!

Date:

Astronomy

Nov. 16, 2013 Rise Set
Actual Time 6:54 AM EST 5:20 PM EST
Civil Twilight 6:27 AM EST 5:46 PM EST
Nautical Twilight 5:57 AM EST 6:16 PM EST
Astronomical Twilight 5:28 AM EST 6:45 PM EST
Moon 4:52 PM EST (11/16) 5:51 AM EST (11/16)
Length of Visible Light 11h 18m
Length of Day
10h 26m
Waxing Gibbous, 99% of the Moon is Illuminated
Nov 16
Waxing Gibbous
Nov 17
Full
Nov 25
Last Quarter
Dec 2
New
Dec 9
First Quarter

Hourly Weather History & Observations

Time (EST) Temp. Dew Point Humidity Pressure Visibility Wind Dir Wind Speed Gust Speed Precip Events Conditions
12:15 AM 59.0 °F - N/A% 30.19 in 2.5 mi ENE 5.8 mph - N/A   Overcast
12:35 AM 59.0 °F - N/A% 30.19 in 3.0 mi Calm Calm - N/A   Overcast
12:55 AM 59.0 °F - N/A% 30.19 in 3.0 mi Calm Calm - N/A   Overcast
1:15 AM 57.2 °F - N/A% 30.18 in 2.5 mi Calm Calm - N/A   Overcast
1:35 AM 57.2 °F - N/A% 30.18 in 2.0 mi ESE 3.5 mph - N/A   Overcast
1:55 AM 57.2 °F - N/A% 30.18 in 1.5 mi Calm Calm - N/A   Mostly Cloudy
2:15 AM 55.4 °F - N/A% 30.18 in 0.2 mi Calm Calm - N/A Fog Fog
2:35 AM 55.4 °F - N/A% 30.18 in 0.2 mi Calm Calm - N/A Fog Fog
2:55 AM 55.4 °F - N/A% 30.18 in 0.2 mi Calm Calm - N/A Fog Fog
3:15 AM 55.4 °F - N/A% 30.18 in 0.2 mi Calm Calm - N/A Fog Fog
3:35 AM 55.4 °F - N/A% 30.18 in 0.2 mi North 3.5 mph - N/A Fog Fog
3:55 AM 55.4 °F - N/A% 30.19 in 1.0 mi North 3.5 mph - N/A   Overcast
4:15 AM 55.4 °F - N/A% 30.20 in 1.2 mi Calm Calm - N/A   Overcast
4:35 AM 55.4 °F - N/A% 30.20 in 2.0 mi Calm Calm - N/A   Overcast
4:55 AM 55.4 °F - N/A% 30.19 in 2.0 mi Calm Calm - N/A   Overcast
5:15 AM 55.4 °F - N/A% 30.20 in 1.5 mi North 3.5 mph - N/A   Overcast
5:55 AM 55.4 °F - N/A% 30.20 in 3.0 mi Calm Calm - N/A   Overcast
6:35 AM 55.4 °F - N/A% 30.21 in 4.0 mi Calm Calm - N/A   Haze
6:55 AM 55.4 °F - N/A% 30.21 in 4.0 mi Calm Calm - N/A   Haze
7:15 AM 55.4 °F - N/A% 30.21 in 5.0 mi Calm Calm - N/A   Haze
8:15 AM 57.2 °F - N/A% 30.22 in 7.0 mi ENE 3.5 mph - N/A   Scattered Clouds
8:55 AM 60.8 °F - N/A% 30.23 in 10.0 mi East 3.5 mph - N/A   Clear
9:15 AM 62.6 °F 62.6 °F 100% 30.23 in 10.0 mi East 3.5 mph - N/A   Clear
10:15 AM 68.0 °F 66.2 °F 94% 30.23 in 10.0 mi ENE 4.6 mph - N/A   Clear
10:35 AM 68.0 °F 64.4 °F 88% 30.23 in 10.0 mi NE 5.8 mph - N/A   Clear
10:55 AM 69.8 °F 64.4 °F 83% 30.23 in 10.0 mi NE 6.9 mph - N/A   Clear
11:35 AM 71.6 °F 60.8 °F 69% 30.22 in 10.0 mi NE 3.5 mph - N/A   Clear
11:55 AM 73.4 °F 62.6 °F 69% 30.21 in 10.0 mi NE 5.8 mph - N/A   Clear
12:15 PM 73.4 °F 60.8 °F 65% 30.21 in 10.0 mi ENE 3.5 mph - N/A   Clear
12:35 PM 73.4 °F 60.8 °F 65% 30.19 in 10.0 mi ENE 6.9 mph - N/A   Scattered Clouds
12:55 PM 75.2 °F 60.8 °F 61% 30.19 in 10.0 mi NE 5.8 mph - N/A   Mostly Cloudy
1:15 PM 73.4 °F 59.0 °F 61% 30.18 in 10.0 mi NNE 6.9 mph - N/A   Mostly Cloudy
1:55 PM 71.6 °F 59.0 °F 64% 30.17 in 10.0 mi Calm Calm - N/A   Clear
2:35 PM 77.0 °F 59.0 °F 54% 30.16 in 10.0 mi NNE 5.8 mph - N/A   Mostly Cloudy
2:55 PM 73.4 °F 59.0 °F 61% 30.16 in 10.0 mi Calm Calm - N/A   Mostly Cloudy
4:55 PM 69.8 °F 59.0 °F 68% 30.15 in 10.0 mi Calm Calm - N/A   Scattered Clouds
6:35 PM 59.0 °F 59.0 °F 100% 30.16 in 10.0 mi ESE 4.6 mph - N/A   Clear
7:15 PM 60.8 °F - N/A% 30.17 in 10.0 mi Calm Calm - N/A   Clear
8:55 PM 55.4 °F - N/A% 30.20 in 10.0 mi Calm Calm - N/A   Clear
9:15 PM 55.4 °F - N/A% 30.20 in 10.0 mi Calm Calm - N/A   Clear
9:35 PM 55.4 °F - N/A% 30.21 in 10.0 mi Calm Calm - N/A   Clear
9:55 PM 55.4 °F - N/A% 30.21 in 7.0 mi Calm Calm - N/A   Clear
10:15 PM 53.6 °F - N/A% 30.21 in 7.0 mi Calm Calm - N/A   Clear
10:35 PM 53.6 °F - N/A% 30.21 in 10.0 mi Calm Calm - N/A   Clear
10:55 PM 53.6 °F - N/A% 30.20 in 5.0 mi Calm Calm - N/A   Haze
11:15 PM 53.6 °F - N/A% 30.21 in 7.0 mi Calm Calm - N/A   Clear
11:35 PM 53.6 °F - N/A% 30.20 in 5.0 mi Calm Calm - N/A   Haze
11:55 PM 51.8 °F - N/A% 30.20 in 10.0 mi Calm Calm - N/A   Clear